This is the latest recevied weather packets stored in our database for station/object EA7JCM-13. If no packets are shown the sender has not sent any weather packets the latest 10 day(s).
| Time | Temp. | Humidity | Pressure | Rain* | Wind** | Luminosity | Snow |
|---|---|---|---|---|---|---|---|
| 1777229403 | 22.78° C | 37% | 1011.4 hPa | 0 mm | - | - | - |
| 1777229103 | 23.33° C | 36% | 1011 hPa | 0 mm | - | - | - |
| 1777228803 | 23.89° C | 33% | 1011.3 hPa | 0 mm | - | - | - |
| 1777228502 | 23.89° C | 32% | 1011 hPa | 0 mm | - | - | - |
| 1777228202 | 24.44° C | 31% | 1011.2 hPa | 0 mm | - | - | - |
| 1777227903 | 25° C | 31% | 1011 hPa | 0 mm | - | - | - |
| 1777227602 | 24.44° C | 32% | 1011 hPa | 0 mm | - | - | - |
| 1777227303 | 25° C | 32% | 1011.1 hPa | 0 mm | - | - | - |
| 1777227002 | 25° C | 31% | 1011.1 hPa | 0 mm | - | - | - |
| 1777226702 | 25.56° C | 31% | 1011 hPa | 0 mm | - | - | - |
| 1777226403 | 25.56° C | 31% | 1010.8 hPa | 0 mm | - | - | - |
| 1777226102 | 25.56° C | 30% | 1010.9 hPa | 0 mm | - | - | - |
| 1777225802 | 25.56° C | 30% | 1010.7 hPa | 0 mm | - | - | - |
| 1777225503 | 26.11° C | 31% | 1011.1 hPa | 0 mm | - | - | - |
| 1777225203 | 25.56° C | 30% | 1011 hPa | 0 mm | - | - | - |
| 1777224902 | 25.56° C | 30% | 1011.2 hPa | 0 mm | - | - | - |
| 1777224603 | 26.11° C | 30% | 1011.1 hPa | 0 mm | - | - | - |
| 1777224302 | 26.11° C | 29% | 1010.9 hPa | 0 mm | - | - | - |
| 1777224002 | 26.11° C | 31% | 1011 hPa | 0 mm | - | - | - |
| 1777223703 | 25.56° C | 32% | 1010.9 hPa | 0 mm | - | - | - |
| 1777223404 | 25.56° C | 31% | 1010.9 hPa | 0 mm | - | - | - |
| 1777223102 | 25.56° C | 31% | 1010.8 hPa | 0 mm | - | - | - |
| 1777222803 | 25.56° C | 30% | 1010.9 hPa | 0 mm | - | - | - |
| 1777222503 | 26.11° C | 31% | 1011 hPa | 0 mm | - | - | - |
| 1777222203 | 25.56° C | 32% | 1010.9 hPa | 0 mm | - | - | - |
* Rain latest hour (hover to see other rain measurements)
** Current wind speed in m/s (hover to see current wind gust speed)